This is the latest recevied weather packets stored in our database for station/object W0DXV. If no packets are shown the sender has not sent any weather packets the latest 10 day(s).
| Time | Temp. | Humidity | Pressure | Rain* | Wind** | Luminosity | Snow |
|---|---|---|---|---|---|---|---|
| 1777782105 | 5° C | 89% | 1012 hPa | 0 mm | - | 0 W/m² | - |
| 1777781801 | 5.56° C | 89% | 1012 hPa | 0 mm | - | 0 W/m² | - |
| 1777781499 | 5.56° C | 88% | 1011.9 hPa | 0 mm | - | 0 W/m² | - |
| 1777781196 | 5.56° C | 87% | 1011.8 hPa | 0 mm | - | 0 W/m² | - |
| 1777780894 | 5.56° C | 87% | 1011.8 hPa | 0 mm | - | 0 W/m² | - |
| 1777780590 | 6.11° C | 87% | 1011.8 hPa | 0 mm | - | 0 W/m² | - |
| 1777780288 | 6.11° C | 86% | 1011.8 hPa | 0 mm | - | 0 W/m² | - |
| 1777779985 | 6.11° C | 86% | 1011.9 hPa | 0 mm | - | 0 W/m² | - |
| 1777779682 | 6.67° C | 85% | 1011.7 hPa | 0 mm | - | 0 W/m² | - |
| 1777779379 | 6.67° C | 84% | 1011.6 hPa | 0 mm | - | 0 W/m² | - |
| 1777779077 | 6.67° C | 84% | 1011.8 hPa | 0 mm | - | 0 W/m² | - |
| 1777778775 | 7.22° C | 82% | 1011.8 hPa | 0 mm | - | 0 W/m² | - |
| 1777778473 | 7.22° C | 83% | 1011.6 hPa | 0 mm | - | 0 W/m² | - |
| 1777778170 | 7.22° C | 82% | 1011.6 hPa | 0 mm | - | 0 W/m² | - |
| 1777777868 | 7.78° C | 81% | 1011.7 hPa | 0 mm | - | 0 W/m² | - |
| 1777777564 | 7.78° C | 80% | 1011.6 hPa | 0 mm | - | 0 W/m² | - |
| 1777777261 | 8.33° C | 78% | 1011.6 hPa | 0 mm | - | 0 W/m² | - |
| 1777776957 | 8.89° C | 77% | 1011.5 hPa | 0 mm | - | 0 W/m² | - |
| 1777776655 | 8.89° C | 77% | 1011.5 hPa | 0 mm | - | 0 W/m² | - |
| 1777776351 | 9.44° C | 78% | 1011.4 hPa | 0 mm | - | 0 W/m² | - |
| 1777776049 | 10° C | 79% | 1011.4 hPa | 0 mm | - | 0 W/m² | - |
| 1777775745 | 10° C | 80% | 1011.3 hPa | 0 mm | - | 0 W/m² | - |
| 1777775443 | 10.56° C | 76% | 1011.2 hPa | 0 mm | - | 0 W/m² | - |
| 1777775138 | 10.56° C | 64% | 1011.4 hPa | 0 mm | - | 0 W/m² | - |
| 1777774833 | 10.56° C | 65% | 1011.2 hPa | 0 mm | - | 0 W/m² | - |
* Rain latest hour (hover to see other rain measurements)
** Current wind speed in m/s (hover to see current wind gust speed)